Location: Lawrence Hall of Science
(37.8785°N, 122.2415°W)
Time: 06:53:20
(UTC-07:00)

Cosmos 2151 - Visible Passes

Search period start: 26 September 2016 00:00
Search period end: 06 October 2016 00:00
Orbit: 581 x 603 km, 82.5° (Epoch: 25 September)

Date Brightness Start Highest point End Pass type
(mag) Time Alt. Az. Time Alt. Az. Time Alt. Az.
26 Sep 4.9 20:36:07 10° NNE 20:37:16 16° NNE 20:37:16 16° NNE visible
26 Sep 6.1 22:13:29 10° NW 22:13:53 12° NW 22:13:53 12° NW visible
27 Sep 4.6 20:44:46 10° N 20:46:34 22° NNE 20:46:34 22° NNE visible
28 Sep 4.2 20:53:36 10° N 20:55:56 31° NNE 20:55:56 31° NNE visible
29 Sep 3.9 21:02:34 10° N 21:05:22 41° NNW 21:05:22 41° NNW visible
30 Sep 4.9 19:36:47 10° NE 19:38:11 11° ENE 19:38:14 11° ENE visible
30 Sep 4.1 21:11:42 10° NNW 21:14:53 42° NW 21:14:53 42° NW visible
01 Oct 4.4 19:44:30 10° NNE 19:47:22 18° ENE 19:47:52 17° E visible
01 Oct 4.6 21:20:59 10° NNW 21:24:30 31° W 21:24:30 31° W visible
02 Oct 3.9 19:52:55 10° NNE 19:56:31 27° ENE 19:57:38 24° ESE visible
02 Oct 5.3 21:30:29 10° NW 21:33:39 21° W 21:34:17 20° W visible
03 Oct 3.3 20:01:36 10° N 20:05:38 41° E 20:07:37 25° SE visible
03 Oct 5.9 21:40:27 10° WNW 21:42:31 13° W 21:44:17 11° WSW visible
04 Oct 2.8 20:10:28 10° N 20:14:41 67° E 20:17:55 17° SSE visible
05 Oct 3.1 20:19:28 10° N 20:23:42 76° W 20:27:56 10° S visible
